timestamp,wind_dir_avg,wind_spd_avg,wind_spd_max_dir,wind_spd_gust,battery_voltage,lat,long
2021-05-17 00:04:01+00:00,12.0,4.36,16.0,4.84,13.05,47.59359,-54.27349
2021-05-17 00:14:01+00:00,2.0,3.48,1.0,3.73,12.65,47.59359,-54.27349
2021-05-17 00:24:01+00:00,11.0,3.21,18.0,4.03,12.65,47.59359,-54.27349
2021-05-17 00:34:01+00:00,14.0,3.94,16.0,4.29,12.65,47.59359,-54.27349
2021-05-17 00:44:01+00:00,17.0,3.7,13.0,4.47,12.65,47.59359,-54.27349
2021-05-17 00:54:01+00:00,20.0,4.56,23.0,4.98,12.65,47.59359,-54.27349
2021-05-17 01:04:01+00:00,58.0,1.7,53.0,2.45,12.65,47.59359,-54.27349
2021-05-17 01:14:00+00:00,158.0,1.93,155.0,2.26,12.57,47.59359,-54.27349
2021-05-17 01:24:00+00:00,94.0,1.56,95.0,5.38,12.57,47.59359,-54.27349
2021-05-17 01:34:00+00:00,74.0,0.96,111.0,1.49,12.57,47.59359,-54.27349
2021-05-17 01:44:00+00:00,61.0,1.39,81.0,2.09,12.57,47.59359,-54.27349
2021-05-17 01:54:00+00:00,34.0,1.08,36.0,1.25,12.57,47.59359,-54.27349
2021-05-17 02:04:00+00:00,100.0,5.77,99.0,6.16,12.57,47.59359,-54.27349
2021-05-17 02:14:00+00:00,106.0,1.11,94.0,3.96,12.57,47.59359,-54.27349
2021-05-17 02:24:00+00:00,114.0,1.04,95.0,4.05,12.57,47.59359,-54.27349
2021-05-17 02:34:00+00:00,122.0,0.97,128.0,1.11,12.57,47.59359,-54.27349
2021-05-17 02:44:00+00:00,105.0,1.02,105.0,1.4,12.57,47.59359,-54.27349
2021-05-17 02:54:00+00:00,111.0,0.85,121.0,0.97,12.57,47.59359,-54.27349
2021-05-17 03:04:00+00:00,57.0,0.28,64.0,0.46,12.57,47.59359,-54.27349
2021-05-17 03:14:00+00:00,49.0,1.09,47.0,1.34,12.57,47.59359,-54.27349
2021-05-17 03:24:00+00:00,55.0,0.66,77.0,0.86,12.57,47.59359,-54.27349
2021-05-17 03:34:00+00:00,82.0,0.59,83.0,0.67,12.57,47.59359,-54.27349
2021-05-17 03:44:00+00:00,123.0,0.34,157.0,0.76,12.57,47.59359,-54.27349
2021-05-17 03:54:00+00:00,93.0,2.25,83.0,5.93,12.57,47.59359,-54.27349
2021-05-17 04:04:00+00:00,83.0,5.82,85.0,6.14,12.57,47.59359,-54.27349
2021-05-17 04:14:00+00:00,357.0,2.72,0.0,3.08,12.49,47.59359,-54.27349
2021-05-17 04:24:00+00:00,358.0,3.54,358.0,4.16,12.49,47.59359,-54.27349
2021-05-17 04:34:00+00:00,354.0,3.13,354.0,3.34,12.49,47.59359,-54.27349
2021-05-17 04:44:00+00:00,348.0,3.15,349.0,3.34,12.49,47.59359,-54.27349
2021-05-17 04:54:00+00:00,349.0,2.92,351.0,3.11,12.49,47.59359,-54.27349
2021-05-17 05:04:00+00:00,353.0,3.07,351.0,3.26,12.49,47.59359,-54.27349
2021-05-17 05:14:00+00:00,358.0,3.39,357.0,3.61,12.49,47.59359,-54.27349
2021-05-17 05:24:00+00:00,5.0,3.98,2.0,5.2,12.49,47.59359,-54.27349
2021-05-17 05:34:00+00:00,8.0,3.85,4.0,4.47,12.49,47.59359,-54.27349
2021-05-17 05:44:00+00:00,2.0,4.92,1.0,6.17,12.49,47.59359,-54.27349
2021-05-17 05:54:00+00:00,0.0,4.82,0.0,5.3,12.49,47.59359,-54.27349
2021-05-17 06:04:00+00:00,6.0,3.91,1.0,4.51,12.49,47.59359,-54.27349
2021-05-17 06:14:00+00:00,4.0,3.96,5.0,4.37,12.41,47.59359,-54.27349
2021-05-17 06:24:00+00:00,9.0,3.71,16.0,4.36,12.41,47.59359,-54.27349
2021-05-17 06:34:00+00:00,13.0,3.46,12.0,3.92,12.41,47.59359,-54.27349
2021-05-17 06:44:00+00:00,3.0,3.58,5.0,3.92,12.41,47.59359,-54.27349
2021-05-17 06:54:00+00:00,12.0,2.56,13.0,3.34,12.41,47.59359,-54.27349
2021-05-17 07:04:00+00:00,0.0,2.23,359.0,2.79,12.41,47.59359,-54.27349
2021-05-17 07:14:00+00:00,6.0,2.72,8.0,3.41,12.41,47.59359,-54.27349
2021-05-17 07:24:00+00:00,347.0,2.93,352.0,3.55,12.41,47.59359,-54.27349
2021-05-17 07:34:00+00:00,356.0,2.59,359.0,3.06,12.41,47.59359,-54.27349
2021-05-17 07:44:00+00:00,354.0,2.79,354.0,3.07,12.41,47.59359,-54.27349
2021-05-17 07:54:00+00:00,349.0,2.91,353.0,3.29,12.41,47.59359,-54.27349
2021-05-17 08:04:00+00:00,345.0,2.51,352.0,3.1,12.41,47.59359,-54.27349
2021-05-17 08:14:01+00:00,9.0,1.77,10.0,2.14,12.33,47.59359,-54.27349
2021-05-17 08:24:01+00:00,10.0,2.01,8.0,2.31,12.33,47.59359,-54.27349
2021-05-17 08:34:01+00:00,17.0,1.69,13.0,2.05,12.33,47.59359,-54.27349
2021-05-17 08:44:01+00:00,6.0,2.14,5.0,2.43,12.33,47.59359,-54.27349
2021-05-17 08:54:01+00:00,0.0,2.42,358.0,2.88,12.33,47.59359,-54.27349
2021-05-17 09:04:01+00:00,319.0,2.1,306.0,2.95,12.33,47.59359,-54.27349
2021-05-17 09:14:01+00:00,341.0,2.13,344.0,2.36,12.57,47.59359,-54.27349
2021-05-17 09:24:01+00:00,347.0,1.52,338.0,1.91,12.57,47.59359,-54.27349
2021-05-17 09:34:01+00:00,336.0,2.7,336.0,3.01,12.57,47.59359,-54.27349
2021-05-17 09:44:01+00:00,1.0,2.49,1.0,2.86,12.57,47.59359,-54.27349
2021-05-17 09:54:01+00:00,353.0,1.87,348.0,2.05,12.57,47.59359,-54.27349
2021-05-17 10:04:01+00:00,356.0,2.13,348.0,2.57,12.57,47.59359,-54.27349
2021-05-17 10:14:01+00:00,5.0,2.77,8.0,3.2,13.76,47.59359,-54.27349
2021-05-17 10:24:01+00:00,15.0,2.22,12.0,2.69,13.76,47.59359,-54.27349
2021-05-17 10:34:01+00:00,23.0,3.06,20.0,3.42,13.76,47.59359,-54.27349
2021-05-17 10:44:01+00:00,71.0,3.41,65.0,3.85,13.76,47.59359,-54.27349
2021-05-17 10:54:01+00:00,65.0,3.67,65.0,4.21,13.76,47.59359,-54.27349
2021-05-17 11:04:01+00:00,68.0,3.97,66.0,4.87,13.76,47.59359,-54.27349
2021-05-17 11:14:01+00:00,67.0,3.22,68.0,3.73,13.68,47.59359,-54.27349
2021-05-17 11:24:01+00:00,71.0,3.74,69.0,4.37,13.68,47.59359,-54.27349
2021-05-17 11:34:01+00:00,60.0,2.97,57.0,3.39,13.68,47.59359,-54.27349
2021-05-17 11:44:01+00:00,49.0,3.51,52.0,4.1,13.68,47.59359,-54.27349
2021-05-17 11:54:01+00:00,62.0,3.14,66.0,3.76,13.68,47.59359,-54.27349
2021-05-17 12:04:01+00:00,60.0,3.74,60.0,4.26,13.68,47.59359,-54.27349
2021-05-17 12:14:00+00:00,58.0,4.23,58.0,4.57,13.92,47.59359,-54.27349
2021-05-17 12:24:00+00:00,64.0,4.23,58.0,4.79,13.92,47.59359,-54.27349
2021-05-17 12:34:00+00:00,57.0,3.95,53.0,4.56,13.92,47.59359,-54.27349
2021-05-17 12:44:00+00:00,53.0,4.28,56.0,4.67,13.92,47.59359,-54.27349
2021-05-17 12:54:00+00:00,57.0,4.1,57.0,4.54,13.92,47.59359,-54.27349
2021-05-17 13:04:00+00:00,49.0,3.33,46.0,3.91,13.92,47.59359,-54.27349
2021-05-17 13:14:01+00:00,51.0,2.46,45.0,3.04,14.16,47.59359,-54.27349
2021-05-17 13:24:01+00:00,52.0,2.78,55.0,3.12,14.16,47.59359,-54.27349
2021-05-17 13:34:01+00:00,68.0,3.09,67.0,3.48,14.16,47.59359,-54.27349
2021-05-17 13:44:01+00:00,73.0,4.0,81.0,5.44,14.16,47.59359,-54.27349
2021-05-17 13:54:01+00:00,71.0,4.47,69.0,5.16,14.16,47.59359,-54.27349
2021-05-17 14:04:01+00:00,65.0,3.33,70.0,3.86,14.16,47.59359,-54.27349
2021-05-17 14:14:01+00:00,65.0,3.74,71.0,4.25,14.32,47.59359,-54.27349
2021-05-17 14:24:01+00:00,69.0,4.3,72.0,4.72,14.32,47.59359,-54.27349
2021-05-17 14:34:01+00:00,69.0,4.17,72.0,4.93,14.32,47.59359,-54.27349
2021-05-17 14:44:01+00:00,63.0,3.14,62.0,3.97,14.32,47.59359,-54.27349
2021-05-17 14:54:01+00:00,71.0,3.23,72.0,4.04,14.32,47.59359,-54.27349
2021-05-17 15:04:01+00:00,70.0,2.47,62.0,3.26,14.32,47.59359,-54.27349
2021-05-17 15:14:01+00:00,63.0,2.39,58.0,2.9,14.24,47.59359,-54.27349
2021-05-17 15:24:01+00:00,59.0,2.06,50.0,2.86,14.24,47.59359,-54.27349
2021-05-17 15:34:01+00:00,63.0,2.58,83.0,3.19,14.24,47.59359,-54.27349
2021-05-17 15:44:01+00:00,59.0,2.27,69.0,3.15,14.24,47.59359,-54.27349
2021-05-17 15:54:01+00:00,57.0,1.69,65.0,2.1,14.24,47.59359,-54.27349
2021-05-17 16:04:01+00:00,127.0,1.14,133.0,1.5,14.24,47.59359,-54.27349
2021-05-17 16:14:01+00:00,137.0,1.16,141.0,1.83,14.4,47.59359,-54.27349
2021-05-17 16:24:01+00:00,64.0,1.26,62.0,1.55,14.4,47.59359,-54.27349
2021-05-17 16:34:01+00:00,45.0,1.7,52.0,2.36,14.4,47.59359,-54.27349
2021-05-17 16:44:01+00:00,47.0,1.19,51.0,1.66,14.4,47.59359,-54.27349
2021-05-17 16:54:01+00:00,58.0,2.04,59.0,2.45,14.4,47.59359,-54.27349
2021-05-17 17:04:01+00:00,51.0,0.25,30.0,0.68,14.4,47.59359,-54.27349
2021-05-17 17:14:01+00:00,239.0,0.63,234.0,0.98,14.16,47.59359,-54.27349
2021-05-17 17:24:01+00:00,173.0,1.93,173.0,2.67,14.16,47.59359,-54.27349
2021-05-17 17:34:01+00:00,242.0,3.25,244.0,3.86,14.16,47.59359,-54.27349
2021-05-17 17:44:01+00:00,220.0,3.51,234.0,4.52,14.16,47.59359,-54.27349
2021-05-17 17:54:01+00:00,231.0,2.67,243.0,4.17,14.16,47.59359,-54.27349
2021-05-17 18:04:01+00:00,221.0,4.61,227.0,5.49,14.16,47.59359,-54.27349
2021-05-17 18:14:01+00:00,208.0,4.72,205.0,5.5,14.0,47.59359,-54.27349
2021-05-17 18:24:01+00:00,217.0,3.93,218.0,4.55,14.0,47.59359,-54.27349
2021-05-17 18:34:01+00:00,211.0,3.82,214.0,4.39,14.0,47.59359,-54.27349
2021-05-17 18:44:01+00:00,207.0,4.66,210.0,5.13,14.0,47.59359,-54.27349
2021-05-17 18:54:01+00:00,212.0,4.64,212.0,5.21,14.0,47.59359,-54.27349
2021-05-17 19:04:01+00:00,209.0,5.77,209.0,6.29,14.0,47.59359,-54.27349
2021-05-17 19:14:01+00:00,217.0,4.27,218.0,4.64,13.92,47.59359,-54.27349
2021-05-17 19:24:01+00:00,214.0,5.53,212.0,6.67,13.92,47.59359,-54.27349
2021-05-17 19:34:01+00:00,211.0,5.25,212.0,6.07,13.92,47.59359,-54.27349
2021-05-17 19:44:01+00:00,213.0,6.34,213.0,7.03,13.92,47.59359,-54.27349
2021-05-17 19:54:01+00:00,205.0,6.32,204.0,6.77,13.92,47.59359,-54.27349
2021-05-17 20:04:01+00:00,204.0,5.69,204.0,6.13,13.92,47.59359,-54.27349
2021-05-17 20:14:01+00:00,213.0,5.13,215.0,5.76,13.92,47.59359,-54.27349
2021-05-17 20:24:01+00:00,223.0,5.34,220.0,6.18,13.92,47.59359,-54.27349
2021-05-17 20:34:01+00:00,206.0,5.97,212.0,6.6,13.92,47.59359,-54.27349
2021-05-17 20:44:01+00:00,213.0,6.31,215.0,7.05,13.92,47.59359,-54.27349
2021-05-17 20:54:01+00:00,215.0,4.93,211.0,5.36,13.92,47.59359,-54.27349
2021-05-17 21:04:01+00:00,210.0,5.77,209.0,6.46,13.92,47.59359,-54.27349
2021-05-17 21:14:01+00:00,217.0,5.59,217.0,6.17,13.84,47.59359,-54.27349
2021-05-17 21:24:01+00:00,208.0,5.41,211.0,6.05,13.84,47.59359,-54.27349
2021-05-17 21:34:01+00:00,210.0,5.85,210.0,6.38,13.84,47.59359,-54.27349
2021-05-17 21:44:01+00:00,213.0,4.67,215.0,5.32,13.84,47.59359,-54.27349
2021-05-17 21:54:01+00:00,215.0,4.41,218.0,4.85,13.84,47.59359,-54.27349
2021-05-17 22:04:01+00:00,225.0,5.06,227.0,5.89,13.84,47.59359,-54.27349
2021-05-17 22:14:01+00:00,216.0,4.52,220.0,5.09,13.6,47.59359,-54.27349
2021-05-17 22:24:01+00:00,212.0,4.53,214.0,5.07,13.6,47.59359,-54.27349
2021-05-17 22:34:01+00:00,211.0,4.39,215.0,4.87,13.6,47.59359,-54.27349
2021-05-17 22:44:01+00:00,212.0,3.75,214.0,4.34,13.6,47.59359,-54.27349
2021-05-17 22:54:01+00:00,223.0,4.07,221.0,4.53,13.6,47.59359,-54.27349
2021-05-17 23:04:01+00:00,217.0,4.99,221.0,5.39,13.6,47.59359,-54.27349
2021-05-17 23:14:01+00:00,220.0,4.02,218.0,4.6,13.21,47.59359,-54.27349
2021-05-17 23:24:01+00:00,215.0,3.72,217.0,4.0,13.21,47.59359,-54.27349
2021-05-17 23:34:01+00:00,214.0,3.36,216.0,3.76,13.21,47.59359,-54.27349
2021-05-17 23:44:01+00:00,210.0,3.43,214.0,3.78,13.21,47.59359,-54.27349
2021-05-17 23:54:01+00:00,212.0,3.08,211.0,3.36,13.21,47.59359,-54.27349
